Year,Month,Day,Hour,Minute,Value (Times are PST for insolation in W/m^2)
2019,10,04,00,00,0.00
2019,10,04,00,01,0.00
2019,10,04,00,02,0.00
2019,10,04,00,03,0.00
2019,10,04,00,04,0.00
2019,10,04,00,05,0.00
2019,10,04,00,06,0.00
2019,10,04,00,07,0.00
2019,10,04,00,08,0.00
2019,10,04,00,09,0.00
2019,10,04,00,10,0.00
2019,10,04,00,11,0.00
2019,10,04,00,12,0.00
2019,10,04,00,13,0.00
2019,10,04,00,14,0.00
2019,10,04,00,15,0.00
2019,10,04,00,16,0.00
2019,10,04,00,17,0.00
2019,10,04,00,18,0.00
2019,10,04,00,19,0.00
2019,10,04,00,20,0.00
2019,10,04,00,21,0.00
2019,10,04,00,22,0.00
2019,10,04,00,23,0.00
2019,10,04,00,24,0.00
2019,10,04,00,25,0.00
2019,10,04,00,26,0.00
2019,10,04,00,27,0.00
2019,10,04,00,28,0.00
2019,10,04,00,29,0.00
2019,10,04,00,30,0.00
2019,10,04,00,31,0.00
2019,10,04,00,32,0.00
2019,10,04,00,33,0.00
2019,10,04,00,34,0.00
2019,10,04,00,35,0.00
2019,10,04,00,36,0.00
2019,10,04,00,37,0.00
2019,10,04,00,38,0.00
2019,10,04,00,39,0.00
2019,10,04,00,40,0.00
2019,10,04,00,41,0.00
2019,10,04,00,42,0.00
2019,10,04,00,43,0.00
2019,10,04,00,44,0.00
2019,10,04,00,45,0.00
2019,10,04,00,46,0.00
2019,10,04,00,47,0.00
2019,10,04,00,48,0.00
2019,10,04,00,49,0.00
2019,10,04,00,50,0.00
2019,10,04,00,51,0.00
2019,10,04,00,52,0.00
2019,10,04,00,53,0.00
2019,10,04,00,54,0.00
2019,10,04,00,55,0.00
2019,10,04,00,56,0.00
2019,10,04,00,57,0.00
2019,10,04,00,58,0.00
2019,10,04,00,59,0.00
2019,10,04,01,00,0.00
2019,10,04,01,01,0.00
2019,10,04,01,02,0.00
2019,10,04,01,03,0.00
2019,10,04,01,04,0.00
2019,10,04,01,05,0.00
2019,10,04,01,06,0.00
2019,10,04,01,07,0.00
2019,10,04,01,08,0.00
2019,10,04,01,09,0.00
2019,10,04,01,10,0.00
2019,10,04,01,11,0.00
2019,10,04,01,12,0.00
2019,10,04,01,13,0.00
2019,10,04,01,14,0.00
2019,10,04,01,15,0.00
2019,10,04,01,16,0.00
2019,10,04,01,17,0.00
2019,10,04,01,18,0.00
2019,10,04,01,19,0.00
2019,10,04,01,20,0.00
2019,10,04,01,21,0.00
2019,10,04,01,22,0.00
2019,10,04,01,23,0.00
2019,10,04,01,24,0.00
2019,10,04,01,25,0.00
2019,10,04,01,26,0.00
2019,10,04,01,27,0.00
2019,10,04,01,28,0.00
2019,10,04,01,29,0.00
2019,10,04,01,30,0.00
2019,10,04,01,31,0.00
2019,10,04,01,32,0.00
2019,10,04,01,33,0.00
2019,10,04,01,34,0.00
2019,10,04,01,35,0.00
2019,10,04,01,36,0.00
2019,10,04,01,37,0.00
2019,10,04,01,38,0.00
2019,10,04,01,39,0.00
2019,10,04,01,40,0.00
2019,10,04,01,41,0.00
2019,10,04,01,42,0.00
2019,10,04,01,43,0.00
2019,10,04,01,44,0.00
2019,10,04,01,45,0.00
2019,10,04,01,46,0.00
2019,10,04,01,47,0.00
2019,10,04,01,48,0.00
2019,10,04,01,49,0.00
2019,10,04,01,50,0.00
2019,10,04,01,51,0.00
2019,10,04,01,52,0.00
2019,10,04,01,53,0.00
2019,10,04,01,54,0.00
2019,10,04,01,55,0.00
2019,10,04,01,56,0.00
2019,10,04,01,57,0.00
2019,10,04,01,58,0.00
2019,10,04,01,59,0.00
2019,10,04,02,00,0.00
2019,10,04,02,01,0.00
2019,10,04,02,02,0.00
2019,10,04,02,03,0.00
2019,10,04,02,04,0.00
2019,10,04,02,05,0.00
2019,10,04,02,06,0.00
2019,10,04,02,07,0.00
2019,10,04,02,08,0.00
2019,10,04,02,09,0.00
2019,10,04,02,10,0.00
2019,10,04,02,11,0.00
2019,10,04,02,12,0.00
2019,10,04,02,13,0.00
2019,10,04,02,14,0.00
2019,10,04,02,15,0.00
2019,10,04,02,16,0.00
2019,10,04,02,17,0.00
2019,10,04,02,18,0.00
2019,10,04,02,19,0.00
2019,10,04,02,20,0.00
2019,10,04,02,21,0.00
2019,10,04,02,22,0.00
2019,10,04,02,23,0.00
2019,10,04,02,24,0.00
2019,10,04,02,25,0.00
2019,10,04,02,26,0.00
2019,10,04,02,27,0.00
2019,10,04,02,28,0.00
2019,10,04,02,29,0.00
2019,10,04,02,30,0.00
2019,10,04,02,31,0.00
2019,10,04,02,32,0.00
2019,10,04,02,33,0.00
2019,10,04,02,34,0.00
2019,10,04,02,35,0.00
2019,10,04,02,36,0.00
2019,10,04,02,37,0.00
2019,10,04,02,38,0.00
2019,10,04,02,39,0.00
2019,10,04,02,40,0.00
2019,10,04,02,41,0.00
2019,10,04,02,42,0.00
2019,10,04,02,43,0.00
2019,10,04,02,44,0.00
2019,10,04,02,45,0.00
2019,10,04,02,46,0.00
2019,10,04,02,47,0.00
2019,10,04,02,48,0.00
2019,10,04,02,49,0.00
2019,10,04,02,50,0.00
2019,10,04,02,51,0.00
2019,10,04,02,52,0.00
2019,10,04,02,53,0.00
2019,10,04,02,54,0.00
2019,10,04,02,55,0.00
2019,10,04,02,56,0.00
2019,10,04,02,57,0.00
2019,10,04,02,58,0.00
2019,10,04,02,59,0.00
2019,10,04,03,00,0.00
2019,10,04,03,01,0.00
2019,10,04,03,02,0.00
2019,10,04,03,03,0.00
2019,10,04,03,04,0.00
2019,10,04,03,05,0.00
2019,10,04,03,06,0.00
2019,10,04,03,07,0.00
2019,10,04,03,08,0.00
2019,10,04,03,09,0.00
2019,10,04,03,10,0.00
2019,10,04,03,11,0.00
2019,10,04,03,12,0.00
2019,10,04,03,13,0.00
2019,10,04,03,14,0.00
2019,10,04,03,15,0.00
2019,10,04,03,16,0.00
2019,10,04,03,17,0.00
2019,10,04,03,18,0.00
2019,10,04,03,19,0.00
2019,10,04,03,20,0.00
2019,10,04,03,21,0.00
2019,10,04,03,22,0.00
2019,10,04,03,23,0.00
2019,10,04,03,24,0.00
2019,10,04,03,25,0.00
2019,10,04,03,26,0.00
2019,10,04,03,27,0.00
2019,10,04,03,28,0.00
2019,10,04,03,29,0.00
2019,10,04,03,30,0.00
2019,10,04,03,31,0.00
2019,10,04,03,32,0.00
2019,10,04,03,33,0.00
2019,10,04,03,34,0.00
2019,10,04,03,35,0.00
2019,10,04,03,36,0.00
2019,10,04,03,37,0.00
2019,10,04,03,38,0.00
2019,10,04,03,39,0.00
2019,10,04,03,40,0.00
2019,10,04,03,41,0.00
2019,10,04,03,42,0.00
2019,10,04,03,43,0.00
2019,10,04,03,44,0.00
2019,10,04,03,45,0.00
2019,10,04,03,46,0.00
2019,10,04,03,47,0.00
2019,10,04,03,48,0.00
2019,10,04,03,49,0.00
2019,10,04,03,50,0.00
2019,10,04,03,51,0.00
2019,10,04,03,52,0.00
2019,10,04,03,53,0.00
2019,10,04,03,54,0.00
2019,10,04,03,55,0.00
2019,10,04,03,56,0.00
2019,10,04,03,57,0.00
2019,10,04,03,58,0.00
2019,10,04,03,59,0.00
2019,10,04,04,00,0.00
2019,10,04,04,01,0.00
2019,10,04,04,02,0.00
2019,10,04,04,03,0.00
2019,10,04,04,04,0.00
2019,10,04,04,05,0.00
2019,10,04,04,06,0.00
2019,10,04,04,07,0.00
2019,10,04,04,08,0.00
2019,10,04,04,09,0.00
2019,10,04,04,10,0.00
2019,10,04,04,11,0.00
2019,10,04,04,12,0.00
2019,10,04,04,13,0.00
2019,10,04,04,14,0.00
2019,10,04,04,15,0.00
2019,10,04,04,16,0.00
2019,10,04,04,17,0.00
2019,10,04,04,18,0.00
2019,10,04,04,19,0.00
2019,10,04,04,20,0.00
2019,10,04,04,21,0.00
2019,10,04,04,22,0.00
2019,10,04,04,23,0.00
2019,10,04,04,24,0.00
2019,10,04,04,25,0.00
2019,10,04,04,26,0.00
2019,10,04,04,27,0.00
2019,10,04,04,28,0.00
2019,10,04,04,29,0.00
2019,10,04,04,30,0.00
2019,10,04,04,31,0.00
2019,10,04,04,32,0.00
2019,10,04,04,33,0.00
2019,10,04,04,34,0.00
2019,10,04,04,35,0.00
2019,10,04,04,36,0.00
2019,10,04,04,37,0.00
2019,10,04,04,38,0.00
2019,10,04,04,39,0.00
2019,10,04,04,40,0.00
2019,10,04,04,41,0.00
2019,10,04,04,42,0.00
2019,10,04,04,43,0.00
2019,10,04,04,44,0.00
2019,10,04,04,45,0.00
2019,10,04,04,46,0.00
2019,10,04,04,47,0.00
2019,10,04,04,48,0.00
2019,10,04,04,49,0.00
2019,10,04,04,50,0.00
2019,10,04,04,51,0.00
2019,10,04,04,52,0.00
2019,10,04,04,53,0.00
2019,10,04,04,54,0.00
2019,10,04,04,55,0.00
2019,10,04,04,56,0.00
2019,10,04,04,57,0.00
2019,10,04,04,58,0.00
2019,10,04,04,59,0.00
2019,10,04,05,00,0.00
2019,10,04,05,01,0.00
2019,10,04,05,02,0.00
2019,10,04,05,03,0.00
2019,10,04,05,04,0.00
2019,10,04,05,05,0.00
2019,10,04,05,06,0.00
2019,10,04,05,07,0.00
2019,10,04,05,08,0.00
2019,10,04,05,09,0.00
2019,10,04,05,10,0.00
2019,10,04,05,11,0.00
2019,10,04,05,12,0.00
2019,10,04,05,13,0.00
2019,10,04,05,14,0.00
2019,10,04,05,15,0.00
2019,10,04,05,16,0.00
2019,10,04,05,17,0.00
2019,10,04,05,18,0.00
2019,10,04,05,19,0.00
2019,10,04,05,20,0.00
2019,10,04,05,21,0.00
2019,10,04,05,22,0.00
2019,10,04,05,23,0.00
2019,10,04,05,24,0.00
2019,10,04,05,25,0.00
2019,10,04,05,26,0.00
2019,10,04,05,27,0.00
2019,10,04,05,28,0.00
2019,10,04,05,29,0.00
2019,10,04,05,30,0.00
2019,10,04,05,31,0.00
2019,10,04,05,32,0.00
2019,10,04,05,33,0.00
2019,10,04,05,34,0.00
2019,10,04,05,35,0.00
2019,10,04,05,36,0.00
2019,10,04,05,37,0.00
2019,10,04,05,38,0.00
2019,10,04,05,39,0.00
2019,10,04,05,40,0.00
2019,10,04,05,41,0.00
2019,10,04,05,42,0.00
2019,10,04,05,43,0.00
2019,10,04,05,44,0.00
2019,10,04,05,45,0.00
2019,10,04,05,46,0.00
2019,10,04,05,47,0.00
2019,10,04,05,48,0.00
2019,10,04,05,49,0.00
2019,10,04,05,50,0.00
2019,10,04,05,51,0.00
2019,10,04,05,52,0.00
2019,10,04,05,53,0.00
2019,10,04,05,54,0.00
2019,10,04,05,55,0.00
2019,10,04,05,56,0.00
2019,10,04,05,57,0.00
2019,10,04,05,58,0.00
2019,10,04,05,59,0.00
2019,10,04,06,00,0.00
2019,10,04,06,01,0.00
2019,10,04,06,02,0.00
2019,10,04,06,03,0.00
2019,10,04,06,04,0.00
2019,10,04,06,05,0.00
2019,10,04,06,06,0.00
2019,10,04,06,07,0.00
2019,10,04,06,08,0.00
2019,10,04,06,09,0.00
2019,10,04,06,10,0.00
2019,10,04,06,11,0.00
2019,10,04,06,12,0.00
2019,10,04,06,13,0.00
2019,10,04,06,14,0.00
2019,10,04,06,15,0.00
2019,10,04,06,16,0.00
2019,10,04,06,17,0.00
2019,10,04,06,18,0.00
2019,10,04,06,19,0.00
2019,10,04,06,20,0.00
2019,10,04,06,21,0.00
2019,10,04,06,22,0.00
2019,10,04,06,23,0.00
2019,10,04,06,24,0.00
2019,10,04,06,25,0.00
2019,10,04,06,26,0.00
2019,10,04,06,27,0.00
2019,10,04,06,28,0.00
2019,10,04,06,29,0.00
2019,10,04,06,30,0.00
2019,10,04,06,31,0.00
2019,10,04,06,32,0.00
2019,10,04,06,33,0.00
2019,10,04,06,34,0.00
2019,10,04,06,35,0.00
2019,10,04,06,36,0.00
2019,10,04,06,37,0.00
2019,10,04,06,38,0.00
2019,10,04,06,39,0.00
2019,10,04,06,40,0.00
2019,10,04,06,41,0.00
2019,10,04,06,42,0.00
2019,10,04,06,43,0.00
2019,10,04,06,44,0.00
2019,10,04,06,45,0.00
2019,10,04,06,46,0.00
2019,10,04,06,47,0.00
2019,10,04,06,48,0.00
2019,10,04,06,49,0.00
2019,10,04,06,50,0.00
2019,10,04,06,51,0.00
2019,10,04,06,52,0.00
2019,10,04,06,53,0.00
2019,10,04,06,54,0.00
2019,10,04,06,55,0.00
2019,10,04,06,56,0.00
2019,10,04,06,57,0.00
2019,10,04,06,58,0.00
2019,10,04,06,59,0.00
2019,10,04,07,00,0.00
2019,10,04,07,01,0.00
2019,10,04,07,02,0.00
2019,10,04,07,03,0.00
2019,10,04,07,04,0.00
2019,10,04,07,05,0.00
2019,10,04,07,06,0.00
2019,10,04,07,07,0.00
2019,10,04,07,08,0.00
2019,10,04,07,09,0.00
2019,10,04,07,10,0.00
2019,10,04,07,11,0.00
2019,10,04,07,12,0.00
2019,10,04,07,13,0.00
2019,10,04,07,14,0.00
2019,10,04,07,15,0.00
2019,10,04,07,16,0.00
2019,10,04,07,17,0.00
2019,10,04,07,18,0.00
2019,10,04,07,19,0.00
2019,10,04,07,20,0.00
2019,10,04,07,21,0.00
2019,10,04,07,22,0.00
2019,10,04,07,23,0.00
2019,10,04,07,24,0.00
2019,10,04,07,25,0.00
2019,10,04,07,26,0.00
2019,10,04,07,27,0.00
2019,10,04,07,28,0.00
2019,10,04,07,29,0.00
2019,10,04,07,30,0.00
2019,10,04,07,31,0.00
2019,10,04,07,32,0.00
2019,10,04,07,33,0.00
2019,10,04,07,34,0.00
2019,10,04,07,35,0.00
2019,10,04,07,36,0.00
2019,10,04,07,37,2.60
2019,10,04,07,38,5.00
2019,10,04,07,39,5.00
2019,10,04,07,40,6.90
2019,10,04,07,41,7.00
2019,10,04,07,42,7.80
2019,10,04,07,43,9.00
2019,10,04,07,44,10.40
2019,10,04,07,45,11.80
2019,10,04,07,46,12.30
2019,10,04,07,47,14.00
2019,10,04,07,48,14.00
2019,10,04,07,49,12.90
2019,10,04,07,50,12.00
2019,10,04,07,51,12.00
2019,10,04,07,52,12.90
2019,10,04,07,53,21.60
2019,10,04,07,54,23.90
2019,10,04,07,55,25.60
2019,10,04,07,56,25.30
2019,10,04,07,57,25.00
2019,10,04,07,58,21.00
2019,10,04,07,59,21.60
2019,10,04,08,00,23.00
2019,10,04,08,01,23.00
2019,10,04,08,02,21.50
2019,10,04,08,03,19.20
2019,10,04,08,04,21.00
2019,10,04,08,05,21.70
2019,10,04,08,06,23.00
2019,10,04,08,07,25.00
2019,10,04,08,08,27.60
2019,10,04,08,09,32.70
2019,10,04,08,10,37.00
2019,10,04,08,11,37.00
2019,10,04,08,12,37.00
2019,10,04,08,13,37.00
2019,10,04,08,14,38.60
2019,10,04,08,15,46.00
2019,10,04,08,16,53.00
2019,10,04,08,17,50.90
2019,10,04,08,18,45.50
2019,10,04,08,19,42.70
2019,10,04,08,20,42.00
2019,10,04,08,21,39.80
2019,10,04,08,22,37.00
2019,10,04,08,23,37.80
2019,10,04,08,24,40.60
2019,10,04,08,25,44.60
2019,10,04,08,26,46.00
2019,10,04,08,27,47.50
2019,10,04,08,28,53.20
2019,10,04,08,29,54.00
2019,10,04,08,30,53.50
2019,10,04,08,31,50.20
2019,10,04,08,32,47.30
2019,10,04,08,33,53.50
2019,10,04,08,34,57.20
2019,10,04,08,35,60.80
2019,10,04,08,36,62.50
2019,10,04,08,37,67.20
2019,10,04,08,38,69.80
2019,10,04,08,39,68.40
2019,10,04,08,40,64.40
2019,10,04,08,41,64.80
2019,10,04,08,42,68.70
2019,10,04,08,43,71.50
2019,10,04,08,44,76.50
2019,10,04,08,45,77.00
2019,10,04,08,46,75.90
2019,10,04,08,47,73.00
2019,10,04,08,48,73.30
2019,10,04,08,49,74.00
2019,10,04,08,50,78.40
2019,10,04,08,51,76.00
2019,10,04,08,52,71.30
2019,10,04,08,53,70.00
2019,10,04,08,54,75.80
2019,10,04,08,55,87.80
2019,10,04,08,56,84.30
2019,10,04,08,57,84.00
2019,10,04,08,58,86.10
2019,10,04,08,59,92.50
2019,10,04,09,00,93.60
2019,10,04,09,01,94.60
2019,10,04,09,02,94.50
2019,10,04,09,03,87.80
2019,10,04,09,04,78.20
2019,10,04,09,05,72.90
2019,10,04,09,06,75.40
2019,10,04,09,07,81.80
2019,10,04,09,08,90.70
2019,10,04,09,09,97.00
2019,10,04,09,10,98.20
2019,10,04,09,11,103.80
2019,10,04,09,12,111.20
2019,10,04,09,13,117.20
2019,10,04,09,14,109.20
2019,10,04,09,15,106.40
2019,10,04,09,16,107.70
2019,10,04,09,17,145.70
2019,10,04,09,18,145.80
2019,10,04,09,19,135.00
2019,10,04,09,20,138.70
2019,10,04,09,21,135.40
2019,10,04,09,22,128.90
2019,10,04,09,23,120.80
2019,10,04,09,24,116.50
2019,10,04,09,25,120.50
2019,10,04,09,26,130.00
2019,10,04,09,27,131.40
2019,10,04,09,28,136.20
2019,10,04,09,29,140.80
2019,10,04,09,30,143.50
2019,10,04,09,31,145.90
2019,10,04,09,32,148.80
2019,10,04,09,33,148.40
2019,10,04,09,34,151.00
2019,10,04,09,35,156.20
2019,10,04,09,36,161.20
2019,10,04,09,37,166.40
2019,10,04,09,38,162.40
2019,10,04,09,39,161.10
2019,10,04,09,40,167.50
2019,10,04,09,41,178.90
2019,10,04,09,42,195.80
2019,10,04,09,43,195.90
2019,10,04,09,44,185.80
2019,10,04,09,45,184.70
2019,10,04,09,46,190.00
2019,10,04,09,47,197.70
2019,10,04,09,48,181.80
2019,10,04,09,49,169.30
2019,10,04,09,50,167.00
2019,10,04,09,51,165.40
2019,10,04,09,52,166.30
2019,10,04,09,53,172.40
2019,10,04,09,54,191.00
2019,10,04,09,55,276.40
2019,10,04,09,56,292.10
2019,10,04,09,57,281.40
2019,10,04,09,58,299.00
2019,10,04,09,59,299.00
2019,10,04,10,00,232.70
2019,10,04,10,01,215.50
2019,10,04,10,02,190.60
2019,10,04,10,03,187.90
2019,10,04,10,04,172.20
2019,10,04,10,05,156.20
2019,10,04,10,06,155.60
2019,10,04,10,07,163.00
2019,10,04,10,08,167.10
2019,10,04,10,09,175.10
2019,10,04,10,10,180.60
2019,10,04,10,11,196.10
2019,10,04,10,12,208.40
2019,10,04,10,13,189.20
2019,10,04,10,14,187.40
2019,10,04,10,15,181.50
2019,10,04,10,16,169.70
2019,10,04,10,17,169.00
2019,10,04,10,18,170.80
2019,10,04,10,19,171.00
2019,10,04,10,20,174.50
2019,10,04,10,21,189.50
2019,10,04,10,22,199.00
2019,10,04,10,23,197.40
2019,10,04,10,24,201.60
2019,10,04,10,25,207.80
2019,10,04,10,26,214.60
2019,10,04,10,27,202.00
2019,10,04,10,28,202.00
2019,10,04,10,29,196.40
2019,10,04,10,30,195.90
2019,10,04,10,31,206.40
2019,10,04,10,32,213.60
2019,10,04,10,33,214.60
2019,10,04,10,34,213.90
2019,10,04,10,35,213.00
2019,10,04,10,36,219.40
2019,10,04,10,37,191.40
2019,10,04,10,38,190.80
2019,10,04,10,39,188.70
2019,10,04,10,40,214.70
2019,10,04,10,41,298.40
2019,10,04,10,42,213.10
2019,10,04,10,43,229.00
2019,10,04,10,44,274.00
2019,10,04,10,45,274.00
2019,10,04,10,46,290.90
2019,10,04,10,47,352.20
2019,10,04,10,48,290.60
2019,10,04,10,49,286.60
2019,10,04,10,50,305.40
2019,10,04,10,51,349.80
2019,10,04,10,52,373.00
2019,10,04,10,53,577.70
2019,10,04,10,54,662.60
2019,10,04,10,55,613.00
2019,10,04,10,56,504.10
2019,10,04,10,57,324.20
2019,10,04,10,58,351.00
2019,10,04,10,59,325.80
2019,10,04,11,00,355.40
2019,10,04,11,01,361.30
2019,10,04,11,02,331.50
2019,10,04,11,03,313.70
2019,10,04,11,04,313.00
2019,10,04,11,05,335.00
2019,10,04,11,06,337.60
2019,10,04,11,07,331.10
2019,10,04,11,08,319.00
2019,10,04,11,09,314.00
2019,10,04,11,10,317.00
2019,10,04,11,11,311.40
2019,10,04,11,12,322.50
2019,10,04,11,13,307.80
2019,10,04,11,14,303.20
2019,10,04,11,15,296.20
2019,10,04,11,16,294.80
2019,10,04,11,17,291.60
2019,10,04,11,18,287.90
2019,10,04,11,19,299.70
2019,10,04,11,20,307.00
2019,10,04,11,21,306.90
2019,10,04,11,22,308.10
2019,10,04,11,23,301.50
2019,10,04,11,24,299.50
2019,10,04,11,25,297.00
2019,10,04,11,26,289.70
2019,10,04,11,27,279.60
2019,10,04,11,28,260.70
2019,10,04,11,29,260.60
2019,10,04,11,30,239.50
2019,10,04,11,31,230.60
2019,10,04,11,32,232.00
2019,10,04,11,33,236.20
2019,10,04,11,34,235.70
2019,10,04,11,35,225.40
2019,10,04,11,36,211.80
2019,10,04,11,37,199.80
2019,10,04,11,38,194.50
2019,10,04,11,39,197.50
2019,10,04,11,40,206.50
2019,10,04,11,41,215.00
2019,10,04,11,42,226.10
2019,10,04,11,43,232.00
2019,10,04,11,44,223.60
2019,10,04,11,45,206.80
2019,10,04,11,46,203.80
2019,10,04,11,47,202.80
2019,10,04,11,48,203.60
2019,10,04,11,49,199.50
2019,10,04,11,50,199.30
2019,10,04,11,51,197.40
2019,10,04,11,52,193.20
2019,10,04,11,53,192.20
2019,10,04,11,54,191.20
2019,10,04,11,55,194.10
2019,10,04,11,56,196.30
2019,10,04,11,57,193.80
2019,10,04,11,58,195.30
2019,10,04,11,59,199.80
2019,10,04,12,00,203.50
2019,10,04,12,01,206.00
2019,10,04,12,02,209.50
2019,10,04,12,03,209.30
2019,10,04,12,04,219.90
2019,10,04,12,05,222.40
2019,10,04,12,06,218.90
2019,10,04,12,07,214.90
2019,10,04,12,08,210.20
2019,10,04,12,09,210.70
2019,10,04,12,10,205.40
2019,10,04,12,11,199.90
2019,10,04,12,12,193.60
2019,10,04,12,13,192.60
2019,10,04,12,14,194.50
2019,10,04,12,15,194.50
2019,10,04,12,16,187.80
2019,10,04,12,17,199.00
2019,10,04,12,18,199.40
2019,10,04,12,19,202.40
2019,10,04,12,20,211.90
2019,10,04,12,21,214.00
2019,10,04,12,22,213.80
2019,10,04,12,23,213.40
2019,10,04,12,24,215.00
2019,10,04,12,25,216.00
2019,10,04,12,26,214.50
2019,10,04,12,27,214.10
2019,10,04,12,28,216.80
2019,10,04,12,29,220.40
2019,10,04,12,30,219.40
2019,10,04,12,31,214.80
2019,10,04,12,32,209.80
2019,10,04,12,33,213.90
2019,10,04,12,34,216.40
2019,10,04,12,35,218.00
2019,10,04,12,36,217.00
2019,10,04,12,37,212.80
2019,10,04,12,38,207.00
2019,10,04,12,39,198.60
2019,10,04,12,40,191.00
2019,10,04,12,41,188.80
2019,10,04,12,42,190.00
2019,10,04,12,43,188.60
2019,10,04,12,44,185.40
2019,10,04,12,45,183.00
2019,10,04,12,46,183.00
2019,10,04,12,47,182.10
2019,10,04,12,48,181.00
2019,10,04,12,49,181.00
2019,10,04,12,50,178.30
2019,10,04,12,51,177.40
2019,10,04,12,52,173.10
2019,10,04,12,53,170.20
2019,10,04,12,54,169.00
2019,10,04,12,55,170.50
2019,10,04,12,56,171.90
2019,10,04,12,57,174.30
2019,10,04,12,58,175.40
2019,10,04,12,59,176.20
2019,10,04,13,00,182.60
2019,10,04,13,01,188.80
2019,10,04,13,02,192.70
2019,10,04,13,03,189.60
2019,10,04,13,04,191.10
2019,10,04,13,05,198.50
2019,10,04,13,06,201.30
2019,10,04,13,07,207.50
2019,10,04,13,08,210.60
2019,10,04,13,09,208.60
2019,10,04,13,10,207.00
2019,10,04,13,11,205.50
2019,10,04,13,12,204.00
2019,10,04,13,13,208.20
2019,10,04,13,14,214.40
2019,10,04,13,15,223.20
2019,10,04,13,16,233.60
2019,10,04,13,17,242.70
2019,10,04,13,18,251.90
2019,10,04,13,19,263.00
2019,10,04,13,20,274.60
2019,10,04,13,21,282.60
2019,10,04,13,22,286.20
2019,10,04,13,23,282.80
2019,10,04,13,24,278.90
2019,10,04,13,25,274.80
2019,10,04,13,26,268.20
2019,10,04,13,27,259.20
2019,10,04,13,28,245.60
2019,10,04,13,29,232.40
2019,10,04,13,30,220.40
2019,10,04,13,31,213.80
2019,10,04,13,32,213.80
2019,10,04,13,33,217.40
2019,10,04,13,34,214.70
2019,10,04,13,35,214.80
2019,10,04,13,36,214.50
2019,10,04,13,37,207.70
2019,10,04,13,38,203.60
2019,10,04,13,39,203.40
2019,10,04,13,40,206.00
2019,10,04,13,41,202.40
2019,10,04,13,42,194.00
2019,10,04,13,43,183.60
2019,10,04,13,44,174.90
2019,10,04,13,45,168.30
2019,10,04,13,46,168.00
2019,10,04,13,47,170.90
2019,10,04,13,48,180.20
2019,10,04,13,49,195.00
2019,10,04,13,50,208.50
2019,10,04,13,51,216.10
2019,10,04,13,52,219.00
2019,10,04,13,53,215.40
2019,10,04,13,54,210.00
2019,10,04,13,55,205.60
2019,10,04,13,56,199.20
2019,10,04,13,57,197.00
2019,10,04,13,58,198.00
2019,10,04,13,59,200.90
2019,10,04,14,00,206.00
2019,10,04,14,01,208.60
2019,10,04,14,02,205.70
2019,10,04,14,03,200.00
2019,10,04,14,04,191.20
2019,10,04,14,05,176.90
2019,10,04,14,06,160.80
2019,10,04,14,07,144.90
2019,10,04,14,08,134.10
2019,10,04,14,09,132.80
2019,10,04,14,10,135.70
2019,10,04,14,11,139.80
2019,10,04,14,12,140.80
2019,10,04,14,13,136.20
2019,10,04,14,14,130.80
2019,10,04,14,15,126.70
2019,10,04,14,16,122.10
2019,10,04,14,17,118.60
2019,10,04,14,18,118.10
2019,10,04,14,19,120.60
2019,10,04,14,20,123.60
2019,10,04,14,21,125.90
2019,10,04,14,22,127.60
2019,10,04,14,23,129.60
2019,10,04,14,24,131.90
2019,10,04,14,25,134.00
2019,10,04,14,26,132.10
2019,10,04,14,27,124.80
2019,10,04,14,28,115.80
2019,10,04,14,29,106.70
2019,10,04,14,30,98.20
2019,10,04,14,31,92.20
2019,10,04,14,32,88.50
2019,10,04,14,33,85.00
2019,10,04,14,34,83.30
2019,10,04,14,35,83.00
2019,10,04,14,36,81.10
2019,10,04,14,37,80.50
2019,10,04,14,38,78.20
2019,10,04,14,39,77.00
2019,10,04,14,40,77.00
2019,10,04,14,41,77.00
2019,10,04,14,42,76.90
2019,10,04,14,43,76.00
2019,10,04,14,44,76.00
2019,10,04,14,45,76.00
2019,10,04,14,46,76.00
2019,10,04,14,47,76.00
2019,10,04,14,48,74.10
2019,10,04,14,49,73.40
2019,10,04,14,50,71.20
2019,10,04,14,51,70.00
2019,10,04,14,52,69.30
2019,10,04,14,53,69.00
2019,10,04,14,54,66.70
2019,10,04,14,55,65.00
2019,10,04,14,56,64.10
2019,10,04,14,57,62.50
2019,10,04,14,58,62.00
2019,10,04,14,59,63.00
2019,10,04,15,00,65.80
2019,10,04,15,01,69.30
2019,10,04,15,02,70.90
2019,10,04,15,03,72.00
2019,10,04,15,04,72.00
2019,10,04,15,05,72.00
2019,10,04,15,06,72.80
2019,10,04,15,07,77.80
2019,10,04,15,08,84.50
2019,10,04,15,09,92.60
2019,10,04,15,10,97.40
2019,10,04,15,11,101.80
2019,10,04,15,12,105.00
2019,10,04,15,13,105.00
2019,10,04,15,14,104.50
2019,10,04,15,15,104.00
2019,10,04,15,16,104.80
2019,10,04,15,17,107.50
2019,10,04,15,18,113.00
2019,10,04,15,19,115.80
2019,10,04,15,20,124.00
2019,10,04,15,21,131.90
2019,10,04,15,22,138.00
2019,10,04,15,23,144.50
2019,10,04,15,24,150.10
2019,10,04,15,25,153.00
2019,10,04,15,26,151.90
2019,10,04,15,27,149.60
2019,10,04,15,28,148.20
2019,10,04,15,29,143.40
2019,10,04,15,30,137.50
2019,10,04,15,31,131.10
2019,10,04,15,32,123.20
2019,10,04,15,33,113.70
2019,10,04,15,34,103.30
2019,10,04,15,35,91.20
2019,10,04,15,36,77.80
2019,10,04,15,37,63.80
2019,10,04,15,38,50.00
2019,10,04,15,39,39.40
2019,10,04,15,40,29.10
2019,10,04,15,41,22.60
2019,10,04,15,42,20.00
2019,10,04,15,43,18.00
2019,10,04,15,44,18.60
2019,10,04,15,45,20.50
2019,10,04,15,46,23.00
2019,10,04,15,47,27.20
2019,10,04,15,48,32.90
2019,10,04,15,49,37.50
2019,10,04,15,50,42.60
2019,10,04,15,51,45.60
2019,10,04,15,52,48.90
2019,10,04,15,53,53.60
2019,10,04,15,54,56.70
2019,10,04,15,55,55.40
2019,10,04,15,56,53.70
2019,10,04,15,57,58.80
2019,10,04,15,58,66.90
2019,10,04,15,59,70.80
2019,10,04,16,00,68.20
2019,10,04,16,01,69.50
2019,10,04,16,02,69.70
2019,10,04,16,03,74.80
2019,10,04,16,04,77.30
2019,10,04,16,05,82.20
2019,10,04,16,06,89.80
2019,10,04,16,07,100.50
2019,10,04,16,08,117.60
2019,10,04,16,09,140.90
2019,10,04,16,10,156.00
2019,10,04,16,11,161.60
2019,10,04,16,12,165.90
2019,10,04,16,13,164.60
2019,10,04,16,14,163.00
2019,10,04,16,15,162.90
2019,10,04,16,16,162.00
2019,10,04,16,17,162.40
2019,10,04,16,18,164.00
2019,10,04,16,19,166.30
2019,10,04,16,20,170.00
2019,10,04,16,21,173.40
2019,10,04,16,22,170.60
2019,10,04,16,23,169.00
2019,10,04,16,24,170.10
2019,10,04,16,25,169.70
2019,10,04,16,26,167.40
2019,10,04,16,27,169.10
2019,10,04,16,28,172.80
2019,10,04,16,29,180.90
2019,10,04,16,30,191.50
2019,10,04,16,31,202.90
2019,10,04,16,32,206.80
2019,10,04,16,33,208.40
2019,10,04,16,34,205.00
2019,10,04,16,35,201.20
2019,10,04,16,36,198.40
2019,10,04,16,37,192.20
2019,10,04,16,38,182.40
2019,10,04,16,39,167.10
2019,10,04,16,40,152.40
2019,10,04,16,41,138.60
2019,10,04,16,42,124.80
2019,10,04,16,43,113.40
2019,10,04,16,44,105.10
2019,10,04,16,45,97.60
2019,10,04,16,46,93.90
2019,10,04,16,47,89.70
2019,10,04,16,48,85.80
2019,10,04,16,49,83.20
2019,10,04,16,50,83.00
2019,10,04,16,51,83.20
2019,10,04,16,52,84.60
2019,10,04,16,53,86.90
2019,10,04,16,54,86.80
2019,10,04,16,55,83.80
2019,10,04,16,56,74.40
2019,10,04,16,57,64.70
2019,10,04,16,58,64.40
2019,10,04,16,59,70.50
2019,10,04,17,00,74.00
2019,10,04,17,01,81.50
2019,10,04,17,02,80.80
2019,10,04,17,03,74.50
2019,10,04,17,04,69.60
2019,10,04,17,05,68.00
2019,10,04,17,06,67.00
2019,10,04,17,07,68.50
2019,10,04,17,08,70.30
2019,10,04,17,09,75.20
2019,10,04,17,10,81.00
2019,10,04,17,11,84.00
2019,10,04,17,12,85.40
2019,10,04,17,13,87.60
2019,10,04,17,14,91.40
2019,10,04,17,15,97.00
2019,10,04,17,16,95.40
2019,10,04,17,17,89.30
2019,10,04,17,18,81.40
2019,10,04,17,19,76.40
2019,10,04,17,20,76.80
2019,10,04,17,21,81.50
2019,10,04,17,22,78.60